Location: Davidschlag
(48.4333°N, 14.2833°E)
Time: 22:42:20
(UTC+00:00)

STARLINK-1053 - Pass Details

Date: 27 February 2020
Orbit: 549 x 551 km, 53.0° (Epoch: 05 April)

Event Time Altitude Azimuth Distance (km) Brightness Sun altitude
Rises 17:26:09 0° 220° (SW) 2,706 7.9 -8.0°
Reaches altitude 10° 17:28:27 10° 213° (SSW) 1,817 6.8 -8.4°
Maximum altitude 17:32:21 41° 142° (SE) 801 4.2 -9.0°
Enters shadow 17:35:52 12° 74° (ENE) 1,682 5.5 -9.6°
